QPF
0.00 0.00 0.00 0.00 0.00 0.00 0.00 0.00 0.00 0.01 0.00 0.00 0.00 0.00 0.00 0.00 0.00 0.00 0.00 0.00 0.00 0.00 0.00 0.00 0.00 0.00 0.00 0.00 0.00 0.00 0.00 0.00 0.00 0.00 0.00 0.00 0.00 0.00 0.00 0.00 0.00 0.00 0.00
0.00 0.00 0.00 0.00 0.00 0.00 0.00 0.00 0.00 0.00 0.02 0.02 0.01 0.00 0.00 0.00 0.00 0.00 0.00 0.00 0.00 0.00 0.00 0.00 0.00 0.00 0.00 0.00 0.00 0.00 0.00 0.00 0.00 0.00 0.00 0.00 0.00 0.00 0.00 0.00 0.00 0.00 0.00
0.00 0.00 0.00 0.00 0.00 0.00 0.00 0.00 0.00 0.00 0.00 0.02 0.04 0.02 0.00 0.00 0.00 0.00 0.00 0.00 0.00 0.00 0.00 0.00 0.00 0.00 0.00 0.00 0.00 0.00 0.00 0.00 0.00 0.00 0.00 0.00 0.00 0.00 0.00 0.00 0.00 0.00 0.00
0.00 0.00 0.00 0.00 0.00 0.00 0.00 0.00 0.00 0.00 0.00 0.00 0.01 0.02 0.00 0.00 0.00 0.00 0.00 0.00 0.00 0.00 0.00 0.00 0.00 0.00 0.00 0.00 0.00 0.00 0.00 0.00 0.00 0.00 0.00 0.00 0.00 0.00 0.00 0.00 0.00 0.00 0.00
0.00 0.00 0.00 0.00 0.00 0.00 0.00 0.00 0.00 0.00 0.00 0.00 0.00 0.00 0.00 0.00 0.00 0.00 0.00 0.00 0.00 0.00 0.00 0.00 0.00 0.00 0.00 0.00 0.00 0.00 0.00 0.00 0.00 0.00 0.00 0.00 0.00 0.00 0.00 0.00 0.00 0.00 0.00
0.00 0.00 0.00 0.00 0.00 0.00 0.00 0.00 0.00 0.00 0.00 0.00 0.00 0.00 0.00 0.00 0.00 0.00 0.00 0.00 0.00 0.00 0.00 0.00 0.00 0.00 0.00 0.00 0.00 0.00 0.00 0.00 0.00 0.00 0.00 0.00 0.00 0.00 0.00 0.00 0.00 0.00 0.00
0.00 0.00 0.00 0.00 0.00 0.00 0.00 0.01 0.02 0.05 0.04 0.02 0.01 0.02 0.01 0.00 0.02 0.01 0.00 0.00 0.00 0.00 0.00 0.00 0.00 0.00 0.00 0.00 0.00 0.00 0.00 0.00 0.00 0.00 0.00 0.00 0.00 0.00 0.00 0.00 0.00 0.00 0.00
0.00 0.00 0.00 0.00 0.00 0.00 0.00 0.00 0.02 0.07 0.08 0.19 0.24 0.15 0.09 0.04 0.03 0.03 0.00 0.00 0.00 0.01 0.00 0.00 0.01 0.00 0.00 0.00 0.00 0.00 0.00 0.00 0.00 0.00 0.00 0.00 0.00 0.00 0.00 0.00 0.00 0.00 0.00
0.00 0.00 0.00 0.00 0.00 0.00 0.00 0.00 0.00 0.00 0.01 0.03 0.06 0.09 0.12 0.11 0.09 0.05 0.03 0.04 0.02 0.04 0.05 0.06 0.07 0.03 0.02 0.01 0.01 0.00 0.00 0.00 0.00 0.00 0.00 0.00 0.00 0.00 0.00 0.00 0.00 0.02 0.04
0.00 0.00 0.00 0.00 0.00 0.00 0.00 0.00 0.00 0.00 0.00 0.00 0.00 0.01 0.03 0.02 0.02 0.02 0.01 0.02 0.05 0.08 0.13 0.12 0.07 0.04 0.02 0.03 0.02 0.02 0.02 0.01 0.00 0.00 0.00 0.00 0.00 0.00 0.00 0.00 0.05 0.17 0.19
0.00 0.00 0.00 0.00 0.00 0.00 0.00 0.00 0.00 0.00 0.00 0.00 0.00 0.00 0.00 0.00 0.00 0.00 0.01 0.02 0.03 0.04 0.02 0.04 0.05 0.03 0.02 0.02 0.02 0.03 0.02 0.02 0.02 0.02 0.01 0.01 0.01 0.01 0.01 0.02 0.09 0.15 0.16
0.00 0.00 0.00 0.00 0.00 0.00 0.00 0.00 0.00 0.00 0.00 0.00 0.00 0.00 0.00 0.00 0.00 0.00 0.00 0.00 0.00 0.00 0.00 0.01 0.05 0.05 0.03 0.03 0.03 0.04 0.06 0.07 0.08 0.08 0.04 0.02 0.01 0.02 0.03 0.08 0.12 0.14 0.14
0.00 0.00 0.00 0.00 0.00 0.00 0.00 0.00 0.00 0.00 0.00 0.00 0.00 0.00 0.00 0.00 0.00 0.00 0.00 0.02 0.02 0.02 0.02 0.02 0.03 0.03 0.05 0.06 0.08 0.08 0.11 0.10 0.11 0.08 0.02 0.01 0.01 0.04 0.13 0.16 0.19 0.20 0.14
0.00 0.00 0.00 0.00 0.00 0.00 0.00 0.00 0.00 0.00 0.00 0.00 0.00 0.00 0.00 0.00 0.00 0.00 0.00 0.00 0.01 0.02 0.02 0.04 0.03 0.08 0.14 0.11 0.07 0.08 0.10 0.09 0.05 0.01 0.01 0.02 0.04 0.13 0.20 0.25 0.27 0.26 0.21
0.01 0.00 0.00 0.00 0.00 0.00 0.00 0.00 0.00 0.00 0.00 0.00 0.00 0.00 0.00 0.00 0.00 0.00 0.00 0.00 0.01 0.01 0.01 0.03 0.05 0.10 0.11 0.09 0.08 0.08 0.08 0.07 0.02 0.01 0.01 0.04 0.12 0.12 0.17 0.22 0.18 0.16 0.15
0.00 0.00 0.00 0.00 0.00 0.00 0.00 0.00 0.00 0.00 0.00 0.00 0.00 0.00 0.00 0.00 0.00 0.00 0.00 0.00 0.00 0.00 0.01 0.02 0.02 0.03 0.03 0.05 0.06 0.05 0.02 0.01 0.01 0.00 0.02 0.06 0.08 0.07 0.10 0.12 0.12 0.09 0.08
0.00 0.00 0.00 0.00 0.00 0.00 0.00 0.00 0.00 0.00 0.00 0.00 0.00 0.00 0.00 0.00 0.00 0.00 0.00 0.00 0.00 0.00 0.00 0.00 0.00 0.00 0.00 0.01 0.01 0.01 0.03 0.02 0.01 0.00 0.00 0.01 0.02 0.06 0.05 0.09 0.09 0.07 0.05
0.00 0.00 0.00 0.00 0.00 0.00 0.00 0.00 0.00 0.00 0.00 0.00 0.00 0.00 0.00 0.00 0.00 0.00 0.00 0.00 0.00 0.00 0.00 0.00 0.00 0.00 0.00 0.00 0.00 0.01 0.01 0.01 0.01 0.01 0.01 0.02 0.01 0.02 0.03 0.04 0.06 0.05 0.03
0.00 0.00 0.00 0.00 0.00 0.00 0.00 0.00 0.00 0.00 0.00 0.00 0.00 0.00 0.00 0.00 0.00 0.00 0.00 0.00 0.00 0.00 0.00 0.00 0.00 0.00 0.00 0.00 0.00 0.01 0.00 0.01 0.01 0.01 0.01 0.01 0.01 0.05 0.05 0.03 0.04 0.04 0.04
0.00 0.00 0.00 0.00 0.00 0.00 0.00 0.00 0.00 0.00 0.00 0.00 0.00 0.00 0.00 0.00 0.00 0.00 0.00 0.00 0.00 0.00 0.00 0.00 0.00 0.00 0.00 0.00 0.00 0.01 0.00 0.00 0.00 0.01 0.03 0.09 0.04 0.12 0.09 0.04 0.05 0.07 0.06
0.00 0.00 0.00 0.00 0.00 0.00 0.00 0.00 0.00 0.00 0.00 0.00 0.00 0.00 0.00 0.00 0.00 0.00 0.00 0.00 0.00 0.00 0.00 0.00 0.00 0.00 0.00 0.00 0.00 0.00 0.00 0.00 0.00 0.01 0.03 0.05 0.13 0.11 0.10 0.09 0.06 0.10 0.10
0.00 0.00 0.00 0.00 0.00 0.00 0.00 0.00 0.00 0.00 0.00 0.00 0.00 0.00 0.00 0.00 0.00 0.00 0.00 0.00 0.00 0.00 0.00 0.00 0.00 0.00 0.00 0.00 0.00 0.01 0.01 0.02 0.00 0.01 0.02 0.08 0.18 0.08 0.09 0.11 0.09 0.10 0.08
0.00 0.00 0.00 0.00 0.00 0.00 0.00 0.00 0.00 0.00 0.00 0.00 0.00 0.00 0.00 0.00 0.00 0.00 0.00 0.00 0.00 0.00 0.00 0.00 0.00 0.00 0.00 0.00 0.01 0.01 0.01 0.02 0.00 0.01 0.06 0.12 0.12 0.10 0.10 0.14 0.24 0.36 0.45
0.00 0.00 0.00 0.00 0.00 0.00 0.00 0.00 0.00 0.00 0.00 0.00 0.00 0.00 0.00 0.00 0.00 0.00 0.00 0.00 0.00 0.00 0.00 0.00 0.00 0.00 0.00 0.00 0.00 0.01 0.01 0.01 0.01 0.03 0.05 0.05 0.06 0.10 0.13 0.23 0.35 0.38 0.37
0.00 0.00 0.00 0.00 0.00 0.00 0.00 0.00 0.00 0.00 0.00 0.00 0.00 0.00 0.00 0.00 0.00 0.00 0.00 0.00 0.00 0.00 0.00 0.00 0.00 0.00 0.00 0.00 0.00 0.01 0.00 0.01 0.04 0.05 0.03 0.05 0.08 0.15 0.22 0.32 0.35 0.32 0.26
0.00 0.00 0.00 0.00 0.00 0.00 0.00 0.00 0.00 0.00 0.00 0.00 0.00 0.00 0.00 0.00 0.00 0.00 0.00 0.01 0.01 0.00 0.00 0.00 0.00 0.00 0.00 0.00 0.01 0.01 0.01 0.02 0.05 0.03 0.03 0.10 0.20 0.30 0.33 0.29 0.21 0.16 0.14
MSLP
1002.44 1002.28 1002.56 1002.85 1003.41 1003.67 1004.50 1005.24 1006.24 1006.80 1007.81 1008.45 1009.33 1009.84 1010.03 1010.78 1011.29 1011.59 1011.83 1012.32 1012.82 1013.34 1013.65 1014.04 1014.58 1014.94 1015.38 1015.65 1016.20 1016.64 1017.05 1017.39 1017.40 1018.10 1018.27 1017.98 1017.77 1017.63 1017.47 1017.47 1017.66 1017.87 1017.99
1001.76 1001.64 1001.59 1001.92 1002.62 1002.85 1003.37 1004.14 1004.70 1005.68 1006.51 1007.41 1007.72 1008.51 1008.79 1009.62 1010.33 1010.95 1011.20 1011.54 1012.03 1012.50 1012.99 1013.36 1013.77 1014.16 1014.65 1015.08 1015.42 1015.80 1016.35 1016.48 1016.88 1017.56 1018.19 1018.20 1017.98 1017.47 1017.13 1017.25 1017.39 1017.38 1017.48
1000.58 1000.73 1001.27 1001.41 1001.56 1002.08 1002.39 1003.06 1003.60 1004.31 1005.24 1006.02 1007.32 1008.49 1009.20 1009.70 1010.03 1010.07 1010.41 1010.73 1011.19 1011.68 1012.16 1012.52 1012.98 1013.39 1013.79 1014.07 1014.53 1014.92 1015.18 1015.81 1016.36 1016.33 1017.04 1017.85 1017.58 1017.21 1016.79 1016.79 1016.80 1016.91 1017.12
1000.62 1000.70 1000.96 1001.24 1000.83 1000.93 1001.11 1001.93 1002.63 1003.10 1003.86 1005.01 1006.07 1006.94 1007.27 1007.74 1007.86 1008.31 1009.29 1009.96 1010.39 1010.86 1011.21 1011.60 1012.21 1012.72 1013.00 1013.25 1013.45 1013.94 1014.29 1014.89 1015.54 1016.34 1015.84 1016.07 1016.38 1017.02 1017.17 1016.78 1016.56 1016.60 1016.83
1000.22 1000.51 1000.71 1000.81 1000.66 1000.16 1000.44 1000.96 1002.12 1002.11 1002.43 1003.35 1004.38 1005.17 1006.11 1006.63 1006.87 1007.43 1008.09 1008.75 1009.43 1009.95 1010.38 1010.88 1011.55 1011.95 1012.38 1012.50 1012.77 1013.19 1013.56 1013.80 1014.23 1014.65 1015.34 1015.84 1016.05 1016.25 1016.91 1017.10 1017.03 1016.79 1016.78
999.90 1000.08 1000.57 1000.91 1000.79 1000.07 1000.00 1000.37 1001.12 1002.14 1002.30 1002.75 1003.81 1004.50 1005.28 1006.05 1006.69 1007.22 1007.75 1008.23 1008.59 1009.25 1009.70 1010.10 1010.51 1010.89 1011.40 1011.70 1012.01 1012.38 1012.71 1012.96 1013.34 1013.56 1014.03 1014.11 1014.90 1015.35 1016.05 1017.03 1017.33 1017.23 1017.10
1000.42 1001.07 1001.41 1001.43 1001.34 1001.11 1000.50 1000.94 1001.88 1002.64 1003.23 1003.52 1004.05 1004.19 1004.68 1005.55 1006.00 1006.42 1006.90 1007.32 1007.82 1008.26 1008.31 1008.60 1009.21 1009.83 1010.22 1010.82 1011.41 1011.85 1012.09 1012.33 1012.59 1012.68 1012.81 1013.16 1013.32 1013.87 1014.59 1015.78 1016.74 1017.28 1017.39
1001.89 1002.27 1002.44 1002.68 1002.39 1002.01 1001.84 1001.80 1002.27 1003.02 1003.46 1003.54 1003.96 1004.48 1005.21 1005.31 1005.36 1005.61 1006.06 1006.65 1006.93 1007.15 1007.69 1008.29 1008.35 1008.88 1009.46 1010.15 1010.69 1011.01 1011.19 1011.39 1011.57 1011.77 1011.93 1012.14 1012.36 1012.73 1013.50 1014.28 1015.62 1017.08 1017.39
1004.05 1003.80 1003.80 1003.70 1003.74 1003.68 1003.40 1003.26 1003.46 1003.87 1003.99 1004.24 1004.34 1004.76 1005.26 1005.05 1005.53 1005.75 1006.06 1005.67 1005.98 1006.36 1006.99 1007.29 1007.78 1007.96 1008.60 1009.23 1009.69 1010.00 1010.28 1010.53 1010.69 1010.71 1011.08 1011.35 1011.49 1011.98 1012.47 1013.03 1013.70 1014.88 1016.63
1005.64 1004.91 1004.88 1005.04 1005.18 1004.93 1004.85 1004.33 1004.75 1004.78 1004.89 1004.85 1004.98 1005.19 1005.89 1005.91 1005.42 1005.31 1005.44 1005.76 1005.79 1005.78 1006.34 1006.64 1007.12 1007.17 1007.60 1008.33 1008.80 1008.76 1009.19 1009.68 1009.90 1009.95 1010.37 1010.57 1010.68 1011.17 1011.65 1012.19 1012.63 1013.30 1014.44
1007.48 1006.12 1006.17 1005.89 1005.98 1005.81 1005.71 1005.41 1005.35 1005.62 1005.58 1005.67 1005.65 1005.81 1005.95 1006.01 1005.97 1006.04 1005.91 1005.84 1005.72 1005.88 1005.55 1005.59 1006.00 1006.50 1006.95 1007.26 1007.61 1007.73 1008.04 1008.46 1008.97 1009.15 1009.40 1009.68 1009.91 1010.28 1010.87 1011.51 1011.92 1012.68 1013.22
1007.88 1007.21 1007.26 1006.85 1006.71 1006.43 1005.95 1005.74 1005.75 1006.17 1006.42 1006.36 1006.36 1006.44 1006.39 1006.39 1006.46 1006.36 1006.07 1005.84 1005.88 1005.74 1005.75 1005.66 1005.62 1005.84 1005.91 1006.24 1006.60 1007.02 1007.34 1007.79 1008.01 1008.24 1008.64 1008.42 1009.06 1009.36 1009.95 1010.75 1011.36 1011.80 1011.88
1008.19 1008.27 1008.12 1007.53 1007.31 1006.89 1006.56 1006.43 1005.98 1006.00 1006.07 1006.10 1006.21 1006.34 1006.51 1006.44 1006.58 1006.66 1006.71 1006.59 1006.27 1006.17 1005.69 1005.55 1005.65 1005.33 1005.32 1005.70 1006.16 1006.19 1006.46 1006.93 1007.00 1007.41 1007.40 1007.51 1008.31 1008.78 1009.21 1009.76 1010.56 1010.95 1011.55
1009.44 1009.16 1008.83 1008.11 1007.34 1007.24 1006.82 1006.76 1006.80 1006.86 1006.69 1006.81 1007.19 1007.25 1006.90 1007.09 1007.23 1007.10 1007.09 1006.95 1006.82 1006.54 1006.08 1005.92 1005.68 1005.48 1005.57 1005.51 1005.65 1005.66 1005.80 1006.09 1006.24 1006.25 1006.40 1006.98 1007.62 1008.02 1008.36 1008.94 1009.70 1010.53 1011.32
1010.44 1010.23 1009.63 1008.78 1008.28 1007.85 1007.59 1007.52 1007.27 1007.04 1006.79 1006.65 1006.27 1006.74 1007.38 1007.72 1007.07 1007.04 1007.14 1007.17 1007.06 1006.79 1006.66 1006.33 1005.82 1005.56 1005.48 1005.45 1005.20 1005.21 1005.41 1005.50 1005.69 1005.98 1006.26 1006.65 1006.96 1007.07 1007.29 1007.93 1009.09 1009.90 1011.16
1011.23 1010.81 1010.17 1009.25 1008.73 1008.56 1008.41 1008.07 1007.65 1007.14 1006.96 1006.99 1007.27 1007.34 1007.45 1007.44 1007.50 1007.29 1007.26 1007.18 1007.08 1006.75 1006.57 1006.57 1006.37 1005.79 1005.59 1005.39 1005.21 1005.08 1005.09 1005.17 1005.20 1005.61 1006.14 1006.61 1006.65 1007.06 1007.68 1007.41 1007.99 1008.19 1009.34
1010.71 1010.61 1009.85 1009.18 1009.12 1009.10 1008.98 1008.78 1008.34 1007.96 1007.68 1007.63 1007.54 1007.59 1007.66 1007.62 1007.81 1007.82 1007.85 1007.90 1007.61 1007.25 1007.03 1006.75 1006.42 1006.12 1005.89 1005.67 1005.38 1005.15 1004.83 1004.96 1005.10 1005.39 1005.99 1006.51 1006.68 1007.08 1007.73 1008.44 1008.48 1008.96 1009.25
1010.75 1010.54 1009.55 1009.40 1009.56 1009.30 1009.12 1008.92 1008.64 1008.18 1007.98 1007.90 1007.70 1007.70 1007.67 1007.70 1007.78 1007.99 1008.17 1008.08 1008.06 1007.64 1007.37 1007.18 1007.02 1006.66 1006.17 1005.86 1005.66 1005.51 1005.60 1005.21 1005.04 1005.20 1005.51 1005.94 1006.46 1006.75 1007.15 1008.21 1009.42 1009.96 1010.01
1010.83 1010.37 1010.18 1010.14 1009.70 1009.47 1008.81 1008.41 1008.25 1007.97 1007.84 1007.89 1007.87 1007.69 1007.59 1007.49 1007.53 1007.75 1007.98 1008.32 1008.21 1007.80 1007.66 1007.55 1007.40 1007.20 1006.61 1006.23 1005.97 1005.94 1005.78 1005.82 1005.77 1005.42 1005.46 1005.66 1006.15 1006.57 1007.30 1008.09 1009.23 1010.61 1011.62
1011.10 1010.61 1010.28 1010.05 1009.85 1009.39 1008.85 1008.75 1008.48 1008.06 1007.68 1007.33 1006.96 1006.84 1006.80 1006.87 1007.08 1007.13 1007.33 1007.80 1007.73 1007.53 1007.67 1007.65 1007.48 1007.50 1007.28 1006.68 1006.31 1006.24 1006.10 1005.93 1006.06 1006.14 1006.06 1006.24 1006.33 1007.28 1007.49 1008.35 1009.06 1011.26 1012.00
1010.97 1010.67 1010.43 1010.14 1009.58 1009.25 1009.03 1008.75 1008.57 1008.09 1007.69 1007.35 1006.79 1006.30 1006.13 1006.27 1006.15 1006.27 1006.50 1006.74 1007.12 1007.32 1007.40 1007.28 1007.19 1007.24 1007.20 1006.88 1006.47 1006.23 1006.06 1006.01 1006.22 1006.31 1006.69 1006.87 1007.04 1007.47 1008.14 1008.60 1009.81 1010.26 1012.34
1010.40 1010.57 1010.44 1010.25 1009.66 1009.12 1008.79 1008.21 1007.96 1007.86 1007.69 1007.26 1006.69 1006.25 1005.82 1005.83 1005.71 1005.46 1005.62 1006.04 1006.48 1006.75 1006.86 1006.76 1006.63 1006.57 1006.65 1006.71 1006.42 1005.98 1005.95 1005.96 1006.30 1006.68 1006.94 1007.23 1007.56 1008.12 1008.45 1009.26 1010.51 1011.42 1012.23
1010.81 1010.45 1009.95 1009.42 1009.14 1008.93 1008.94 1008.50 1008.04 1007.76 1007.16 1006.53 1006.09 1006.02 1005.87 1005.45 1005.39 1005.30 1005.18 1005.53 1005.74 1006.04 1005.99 1006.10 1006.15 1006.08 1006.14 1006.24 1006.14 1005.78 1005.61 1005.96 1006.46 1006.83 1007.02 1007.60 1008.14 1008.62 1009.12 1009.98 1010.82 1011.57 1012.52
1011.28 1010.87 1010.41 1009.93 1009.60 1009.51 1009.31 1008.93 1008.39 1008.00 1007.43 1006.77 1006.37 1006.04 1005.66 1005.52 1005.30 1004.87 1004.85 1004.88 1004.91 1005.18 1005.21 1005.33 1005.49 1005.59 1005.88 1005.97 1005.91 1006.01 1005.73 1006.17 1006.71 1007.09 1007.57 1007.73 1008.28 1008.71 1009.33 1010.35 1010.94 1011.41 1012.29
1011.86 1011.48 1010.95 1010.40 1009.90 1009.54 1009.05 1008.58 1007.97 1007.42 1006.63 1006.02 1005.73 1005.67 1005.45 1005.09 1004.87 1004.79 1004.79 1004.48 1004.11 1004.39 1004.00 1003.82 1004.33 1004.91 1005.32 1005.34 1005.40 1005.81 1005.75 1006.00 1006.49 1007.35 1007.91 1008.22 1008.71 1009.30 1009.76 1010.51 1011.05 1011.64 1012.27
1011.58 1011.09 1010.66 1010.08 1009.47 1009.08 1008.50 1008.00 1007.54 1007.04 1006.47 1005.91 1005.60 1005.41 1005.29 1005.14 1004.80 1004.24 1003.80 1003.62 1003.25 1003.17 1003.51 1003.39 1003.24 1003.69 1003.92 1004.68 1004.91 1005.17 1005.51 1005.78 1006.13 1007.03 1007.72 1008.28 1008.53 1009.10 1009.74 1010.09 1011.04 1011.83 1012.58
Thickness
5752 5756 5769 5772 5772 5779 5779 5777 5771 5771 5764 5762 5758 5757 5760 5759 5757 5757 5753 5748 5746 5744 5742 5739 5737 5734 5732 5730 5726 5722 5718 5715 5716 5709 5707 5708 5710 5707 5707 5706 5701 5697 5694
5749 5758 5765 5771 5767 5767 5774 5777 5779 5773 5767 5763 5766 5762 5763 5760 5757 5755 5754 5750 5746 5743 5741 5739 5737 5736 5733 5730 5727 5725 5718 5718 5715 5705 5699 5695 5699 5702 5705 5702 5698 5694 5692
5749 5753 5755 5764 5768 5764 5763 5770 5777 5777 5771 5767 5759 5751 5749 5746 5746 5754 5754 5754 5749 5743 5740 5738 5736 5734 5733 5730 5727 5724 5722 5715 5711 5711 5701 5687 5691 5696 5700 5698 5697 5692 5689
5738 5745 5747 5749 5759 5762 5770 5765 5770 5773 5773 5766 5756 5751 5754 5751 5759 5759 5755 5751 5749 5746 5741 5738 5734 5732 5732 5731 5728 5724 5720 5714 5707 5700 5707 5705 5701 5690 5689 5691 5691 5689 5685
5730 5730 5736 5740 5747 5755 5759 5766 5761 5769 5772 5769 5764 5758 5751 5754 5756 5754 5751 5750 5749 5748 5743 5738 5733 5731 5729 5729 5727 5722 5718 5715 5710 5705 5697 5694 5694 5692 5683 5680 5680 5682 5679
5721 5725 5724 5724 5730 5743 5752 5761 5758 5754 5759 5761 5758 5755 5751 5744 5741 5741 5742 5743 5744 5743 5742 5740 5737 5734 5730 5728 5725 5721 5717 5715 5710 5709 5704 5702 5696 5693 5683 5674 5669 5669 5670
5700 5698 5697 5707 5713 5718 5738 5741 5739 5736 5738 5741 5737 5743 5746 5738 5736 5736 5738 5738 5738 5737 5742 5743 5739 5734 5731 5726 5720 5716 5714 5711 5708 5707 5706 5703 5702 5696 5690 5677 5665 5659 5658
5674 5676 5676 5683 5693 5703 5712 5722 5722 5719 5723 5728 5728 5728 5727 5728 5732 5734 5735 5732 5735 5736 5735 5731 5733 5731 5728 5723 5717 5714 5712 5710 5708 5705 5704 5702 5702 5698 5690 5681 5664 5649 5647
5643 5651 5655 5664 5671 5677 5687 5695 5700 5700 5705 5709 5714 5712 5709 5710 5709 5722 5724 5730 5731 5732 5728 5727 5724 5725 5723 5720 5715 5712 5709 5705 5704 5706 5702 5699 5699 5695 5690 5682 5673 5659 5638
5618 5633 5640 5641 5647 5655 5663 5672 5676 5680 5684 5690 5693 5696 5693 5695 5707 5716 5718 5719 5720 5722 5719 5717 5714 5718 5718 5714 5712 5712 5708 5702 5700 5701 5697 5696 5695 5691 5685 5678 5672 5663 5652
5592 5609 5615 5625 5628 5635 5643 5654 5657 5659 5664 5667 5672 5676 5680 5684 5690 5694 5700 5703 5707 5707 5712 5717 5715 5712 5710 5712 5710 5710 5707 5700 5694 5693 5693 5692 5692 5687 5681 5673 5667 5659 5653
5578 5587 5597 5607 5612 5618 5629 5635 5640 5642 5643 5648 5652 5655 5660 5664 5667 5673 5681 5689 5691 5694 5696 5701 5703 5701 5704 5705 5704 5700 5695 5691 5690 5686 5682 5692 5687 5682 5676 5667 5661 5658 5654
5564 5569 5575 5586 5594 5604 5614 5620 5627 5630 5635 5639 5641 5643 5645 5649 5651 5653 5656 5663 5671 5676 5683 5685 5684 5691 5692 5690 5689 5689 5688 5683 5684 5678 5681 5684 5679 5677 5671 5665 5657 5653 5644
5541 5551 5562 5571 5582 5589 5599 5603 5608 5611 5617 5621 5620 5623 5627 5629 5632 5636 5639 5642 5648 5655 5663 5667 5673 5675 5673 5673 5674 5677 5678 5677 5676 5679 5681 5677 5675 5672 5667 5660 5653 5643 5634
5527 5534 5543 5554 5564 5573 5578 5582 5588 5593 5599 5604 5611 5611 5607 5606 5616 5620 5623 5627 5631 5636 5640 5647 5656 5663 5663 5661 5664 5666 5668 5668 5668 5668 5668 5668 5667 5667 5664 5658 5645 5637 5625
5508 5515 5523 5534 5542 5550 5556 5564 5571 5579 5585 5588 5587 5589 5591 5594 5597 5602 5604 5607 5612 5618 5623 5627 5634 5642 5648 5649 5649 5653 5656 5657 5658 5656 5656 5654 5656 5653 5646 5648 5642 5640 5628
5500 5502 5512 5520 5522 5526 5533 5537 5544 5552 5559 5564 5568 5570 5573 5577 5577 5582 5586 5587 5591 5595 5599 5605 5613 5622 5627 5628 5632 5635 5643 5644 5645 5645 5642 5641 5642 5638 5633 5626 5624 5619 5616
5485 5487 5494 5498 5499 5505 5512 5516 5524 5534 5539 5543 5546 5550 5554 5558 5553 5560 5564 5568 5572 5576 5580 5584 5589 5598 5606 5609 5613 5616 5620 5627 5630 5631 5631 5630 5627 5627 5623 5613 5602 5597 5595
5468 5472 5478 5482 5488 5491 5499 5504 5512 5519 5525 5527 5527 5532 5537 5543 5546 5540 5542 5544 5548 5554 5559 5565 5569 5575 5583 5588 5593 5597 5603 5605 5606 5613 5615 5617 5614 5612 5607 5600 5590 5577 5568
5450 5456 5463 5469 5473 5477 5479 5485 5493 5500 5507 5507 5516 5522 5526 5531 5533 5535 5529 5531 5537 5538 5540 5544 5549 5553 5560 5566 5571 5577 5582 5588 5587 5592 5595 5596 5599 5590 5590 5585 5578 5559 5554
5442 5445 5447 5450 5455 5459 5464 5472 5473 5477 5481 5489 5501 5510 5515 5514 5518 5519 5519 5521 5522 5524 5526 5529 5531 5534 5539 5545 5552 5558 5565 5568 5568 5571 5572 5574 5576 5574 5572 5568 5558 5555 5537
5440 5435 5434 5436 5440 5443 5446 5455 5463 5463 5466 5472 5482 5490 5496 5498 5504 5506 5506 5507 5508 5509 5512 5515 5518 5520 5523 5526 5532 5540 5546 5549 5550 5552 5552 5554 5555 5554 5553 5547 5538 5531 5523
5426 5428 5431 5435 5435 5434 5431 5437 5442 5443 5451 5459 5465 5464 5467 5474 5476 5480 5490 5490 5491 5493 5497 5497 5501 5507 5506 5511 5516 5523 5529 5531 5529 5530 5533 5533 5533 5533 5531 5526 5521 5516 5508
5410 5414 5416 5420 5421 5421 5421 5421 5424 5425 5429 5436 5440 5441 5442 5443 5444 5451 5459 5467 5470 5472 5478 5483 5487 5491 5492 5494 5498 5502 5511 5511 5510 5510 5511 5514 5515 5516 5514 5509 5506 5503 5496
5393 5396 5399 5404 5407 5409 5411 5413 5416 5419 5425 5430 5431 5427 5426 5429 5430 5431 5434 5438 5447 5447 5457 5470 5470 5472 5475 5477 5483 5486 5493 5496 5496 5493 5493 5496 5497 5497 5497 5494 5491 5489 5483
5383 5387 5390 5395 5399 5400 5404 5405 5404 5406 5409 5413 5411 5409 5408 5410 5412 5419 5424 5426 5434 5435 5434 5439 5449 5451 5456 5456 5461 5469 5475 5480 5480 5479 5481 5482 5486 5486 5486 5487 5480 5474 5464